(41604) = 2000 SO104

Discovered at Socorro on 2000-09-24 by LINEAR.

Orbit

Orbit type: Main Belt

Note: WebGL enabled browser required.

epoch2024-03-31.0
epoch JD2460400.5
perihelion date2022-01-30.11569
perihelion JD2459609.61569
argument of perihelion (°)187.71833
ascending node (°)190.60476
inclination (°)2.72444
eccentricity0.1616793
perihelion distance (AU)1.9504443
Tisserand w.r.t. Jupiter3.6
ΔV w.r.t. Earth (km/sec)8.7
semimajor axis (AU)2.3266088
mean anomaly (°)219.65028
mean daily motion (°/day)0.27772740
aphelion distance (AU)2.703
period (years)3.55
P-vector [x]0.94932682
P-vector [y]0.29083584
P-vector [z]0.11913486
Q-vector [x]-0.31416887
Q-vector [y]0.88869064
Q-vector [z]0.33395639
absolute magnitude15.92
phase slope0.15
uncertainty0
referenceMPEC 2024-F50
observations used1432
oppositions19
arc length (days)9558
first opposition used1998
last opposition used2024
residual rms (arc-secs)0.70
perturbers coarse indicatorM-v
perturbers precise indicator003Ek
first observation date used1998-01-17.0
last observation date used2024-03-19.0
computer nameMPCLINUX
JD of orbit computation2456966.805617
perihelion JD uncertainty (days)3.8017E-05
argument of perihelion uncertainty (°)5.5405E-05
ascending node uncertainty (°)5.4550E-05
inclination uncertainty (°)4.4186E-06
eccentricity uncertainty 4.2675E-08
perihelion distance uncertainty (AU)1.0203E-07
Minimum Orbit Intersection Distances (in AU)
for orbit epoch: 2460400.5, reference: E2024-F50
Mercury1.60539
Venus1.22631
Earth0.9524
Mars0.51876
Jupiter2.74901
Saturn6.72518
Uranus15.7857
Neptune27.8295

Observations

1461 total observations over interval: 1998 01 17.93589 – 2024 03 19.637858
These data are available for download (format description).

Date (UT) J2000 RA J2000 Dec Magn Location Ref
1998 01 17.93589 08 00 07.45 +16 00 13.3 17.4 V 910 – Caussols-ODAS MPS 21217
1998 01 17.95969 08 00 05.84 +16 00 18.7 17.5 V 910 – Caussols-ODAS MPS 21217
1998 01 17.99151 08 00 03.67 +16 00 25.8 17.4 V 910 – Caussols-ODAS MPS 21217
1999 04 21.31496 14 51 01.89 -14 14 23.4 19.7 V 691 – Steward Observatory, Kitt Peak-Spacewatch MPS 81171
1999 04 21.33690 14 51 00.68 -14 14 16.7 19.7 V 691 – Steward Observatory, Kitt Peak-Spacewatch MPS 81171
1999 04 21.35914 14 50 59.40 -14 14 09.2 19.7 V 691 – Steward Observatory, Kitt Peak-Spacewatch MPS 81171
1999 05 13.22629 14 30 06.14 -12 16 53.2 19.5   704 – Lincoln Laboratory ETS, New Mexico MPS 21217
1999 05 13.24143 14 30 05.22 -12 16 48.6 19.5   704 – Lincoln Laboratory ETS, New Mexico MPS 21217
1999 05 13.27166 14 30 03.64 -12 16 39.4 19.9   704 – Lincoln Laboratory ETS, New Mexico MPS 21217
1999 05 13.28676 14 30 02.49 -12 16 32.6 19.9   704 – Lincoln Laboratory ETS, New Mexico MPS 21217
2000 08 05.51800 01 04 21.30 +08 22 57.5 19.6   608 – Haleakala-AMOS MPS 21217
2000 08 05.52851 01 04 21.73 +08 22 59.8 19.6   608 – Haleakala-AMOS MPS 21217
2000 08 05.53927 01 04 22.24 +08 23 01.9 19.6   608 – Haleakala-AMOS MPS 21217
2000 09 04.32656 01 14 30.04 +08 43 15.3 18.0 R 699 – Lowell Observatory-LONEOS MPS 21217
2000 09 04.35227 01 14 29.78 +08 43 11.2   699 – Lowell Observatory-LONEOS MPS 21217
2000 09 04.37813 01 14 29.49 +08 43 07.0   699 – Lowell Observatory-LONEOS MPS 21217
2000 09 04.40395 01 14 29.22 +08 43 03.2   699 – Lowell Observatory-LONEOS MPS 21217
2000 09 23.40755 01 06 30.63 +07 13 55.0 17.3 R 699 – Lowell Observatory-LONEOS MPS 30138
2000 09 23.42291 01 06 29.99 +07 13 48.3   699 – Lowell Observatory-LONEOS MPS 30138
2000 09 23.43828 01 06 29.31 +07 13 42.7   699 – Lowell Observatory-LONEOS MPS 30138
2000 09 23.45372 01 06 28.67 +07 13 36.9   699 – Lowell Observatory-LONEOS MPS 30138
2000 09 24.33988 01 05 52.72 +07 07 48.3 17.5   704 – Lincoln Laboratory ETS, New Mexico MPS 19939
2000 09 24.35477 01 05 52.05 +07 07 42.7 17.5   704 – Lincoln Laboratory ETS, New Mexico MPS 19939
2000 09 24.37002 01 05 51.38 +07 07 36.4 17.5   704 – Lincoln Laboratory ETS, New Mexico MPS 19939
2000 09 24.38497 01 05 50.73 +07 07 30.1 17.6   704 – Lincoln Laboratory ETS, New Mexico MPS 19939
2000 09 24.39996 01 05 50.04 +07 07 24.3 18.1   704 – Lincoln Laboratory ETS, New Mexico MPS 19939
2000 09 27.25851 01 03 47.25 +06 47 51.7 18.2   704 – Lincoln Laboratory ETS, New Mexico MPS 19939
2000 09 27.27361 01 03 46.54 +06 47 45.9 18.3   704 – Lincoln Laboratory ETS, New Mexico MPS 19939
2000 09 27.28869 01 03 45.83 +06 47 39.6 18.3   704 – Lincoln Laboratory ETS, New Mexico MPS 19939
2000 09 27.31886 01 03 44.37 +06 47 26.7 18.2   704 – Lincoln Laboratory ETS, New Mexico MPS 19939
2000 09 29.22243 01 02 17.94 +06 33 54.2 16.6 V 739 – Sunflower Observatory, Olathe MPS 19939
2000 09 29.27402 01 02 15.33 +06 33 30.4 17.7 V 739 – Sunflower Observatory, Olathe MPS 19939
2000 09 29.32552 01 02 12.78 +06 33 08.3 17.3 V 739 – Sunflower Observatory, Olathe MPS 19939
2000 09 29.37696 01 02 10.33 +06 32 45.1   739 – Sunflower Observatory, Olathe MPS 19939
2000 10 01.13520 01 00 48.38 +06 19 53.8 18.2 V 739 – Sunflower Observatory, Olathe MPS 19939
2000 10 01.14444 01 00 47.96 +06 19 49.8 18.3 V 739 – Sunflower Observatory, Olathe MPS 19939
2000 10 01.24988 01 00 42.69 +06 19 04.2 17.6   704 – Lincoln Laboratory ETS, New Mexico MPS 19939
2000 10 01.26499 01 00 41.94 +06 18 57.9 17.4   704 – Lincoln Laboratory ETS, New Mexico MPS 19939
2000 10 01.28010 01 00 41.17 +06 18 51.0 17.5   704 – Lincoln Laboratory ETS, New Mexico MPS 19939
2000 10 01.30206 01 00 40.05 +06 18 41.6 17.6   704 – Lincoln Laboratory ETS, New Mexico MPS 19939
2000 10 01.32149 01 00 39.05 +06 18 32.8 17.4   704 – Lincoln Laboratory ETS, New Mexico MPS 19939
2000 10 02.37108 00 59 48.45 +06 10 45.0 18.6   704 – Lincoln Laboratory ETS, New Mexico MPS 19939
2000 10 02.38602 00 59 47.78 +06 10 38.0 17.8   704 – Lincoln Laboratory ETS, New Mexico MPS 19939
2000 10 02.40117 00 59 47.00 +06 10 31.3 17.8   704 – Lincoln Laboratory ETS, New Mexico MPS 19939
2000 10 02.41642 00 59 46.21 +06 10 24.8 18.1   704 – Lincoln Laboratory ETS, New Mexico MPS 19939
2000 10 02.43133 00 59 45.46 +06 10 18.1 17.9   704 – Lincoln Laboratory ETS, New Mexico MPS 19939
2000 10 03.24855 00 59 06.43 +06 04 10.6 17.8   704 – Lincoln Laboratory ETS, New Mexico MPS 19939
2000 10 03.24867 00 59 06.44 +06 04 10.6 17.7   704 – Lincoln Laboratory ETS, New Mexico MPS 19939
2000 10 03.26418 00 59 05.66 +06 04 03.3 17.6   704 – Lincoln Laboratory ETS, New Mexico MPS 19939
2000 10 03.26430 00 59 05.63 +06 04 03.6 17.9   704 – Lincoln Laboratory ETS, New Mexico MPS 19939
2000 10 03.27970 00 59 04.84 +06 03 56.3 17.8   704 – Lincoln Laboratory ETS, New Mexico MPS 19939
2000 10 03.27982 00 59 04.81 +06 03 56.3 17.7   704 – Lincoln Laboratory ETS, New Mexico MPS 19939
2000 10 03.32164 00 59 02.68 +06 03 37.3 17.9   704 – Lincoln Laboratory ETS, New Mexico MPS 19939
2000 10 03.32176 00 59 02.66 +06 03 37.4 17.9   704 – Lincoln Laboratory ETS, New Mexico MPS 19939
2000 10 24.26595 00 43 00.96 +03 33 42.4 17.8   704 – Lincoln Laboratory ETS, New Mexico MPS 21217
2000 10 24.29332 00 42 59.91 +03 33 32.5 18.3   704 – Lincoln Laboratory ETS, New Mexico MPS 21217
2000 10 24.30701 00 42 59.40 +03 33 27.1 18.3   704 – Lincoln Laboratory ETS, New Mexico MPS 21217
2000 10 24.32067 00 42 58.90 +03 33 22.0 19.0   704 – Lincoln Laboratory ETS, New Mexico MPS 21217
2000 10 26.25056 00 41 50.65 +03 22 09.7 17.1   704 – Lincoln Laboratory ETS, New Mexico MPS 21217
2000 10 26.26455 00 41 50.13 +03 22 05.3 16.5   704 – Lincoln Laboratory ETS, New Mexico MPS 21217
2000 10 26.27851 00 41 49.60 +03 21 59.5 17.4   704 – Lincoln Laboratory ETS, New Mexico MPS 21217
2000 10 26.29275 00 41 49.09 +03 21 56.0 17.6   704 – Lincoln Laboratory ETS, New Mexico MPS 21217
2000 10 30.23882 00 39 48.06 +03 01 19.2 17.7   704 – Lincoln Laboratory ETS, New Mexico MPS 21217
2000 10 30.25410 00 39 47.61 +03 01 14.6 18.6   704 – Lincoln Laboratory ETS, New Mexico MPS 21217
2000 10 30.26861 00 39 47.18 +03 01 10.2 18.2   704 – Lincoln Laboratory ETS, New Mexico MPS 21217
2000 11 02.20925 00 38 34.59 +02 48 03.2 18.1   704 – Lincoln Laboratory ETS, New Mexico MPS 21217
2000 11 02.22290 00 38 34.21 +02 47 59.7 18.4   704 – Lincoln Laboratory ETS, New Mexico MPS 21217
2000 11 02.23677 00 38 33.89 +02 47 56.6 18.4   704 – Lincoln Laboratory ETS, New Mexico MPS 21217
2000 11 02.25034 00 38 33.55 +02 47 52.5 18.9   704 – Lincoln Laboratory ETS, New Mexico MPS 21217
2000 11 02.26442 00 38 33.18 +02 47 50.1 18.8   704 – Lincoln Laboratory ETS, New Mexico MPS 21217
2000 11 26.14442 00 39 04.61 +02 19 17.8 18.6   704 – Lincoln Laboratory ETS, New Mexico MPS 22486
2000 11 26.17990 00 39 05.40 +02 19 21.9 18.8   704 – Lincoln Laboratory ETS, New Mexico MPS 22486
2000 11 26.19501 00 39 05.74 +02 19 23.3 18.8   704 – Lincoln Laboratory ETS, New Mexico MPS 22486
2000 11 26.21432 00 39 06.20 +02 19 25.3 18.8   704 – Lincoln Laboratory ETS, New Mexico MPS 22486
2000 11 26.22895 00 39 06.50 +02 19 26.4 18.1   704 – Lincoln Laboratory ETS, New Mexico MPS 22486
2002 02 09.44566 11 43 28.57 -00 14 11.5 19.1   704 – Lincoln Laboratory ETS, New Mexico MPS 51983
2002 02 09.46021 11 43 28.07 -00 14 06.8 19.8   704 – Lincoln Laboratory ETS, New Mexico MPS 51983
2002 02 09.47461 11 43 27.52 -00 14 04.7 19.6   704 – Lincoln Laboratory ETS, New Mexico MPS 51983
2002 02 09.48898 11 43 27.07 -00 14 02.5 19.3   704 – Lincoln Laboratory ETS, New Mexico MPS 51983
2002 02 11.38518 11 42 22.25 -00 06 17.1 19.2   704 – Lincoln Laboratory ETS, New Mexico MPS 51983
2002 02 11.39976 11 42 21.71 -00 06 13.6 19.5   704 – Lincoln Laboratory ETS, New Mexico MPS 51983
2002 02 11.42853 11 42 20.63 -00 06 05.5 19.6   704 – Lincoln Laboratory ETS, New Mexico MPS 51983
2002 02 11.44282 11 42 20.07 -00 06 01.7 19.2   704 – Lincoln Laboratory ETS, New Mexico MPS 51983
2002 02 15.35767 11 39 50.03 +00 11 51.9 19.9   704 – Lincoln Laboratory ETS, New Mexico MPS 51983
2002 02 15.37210 11 39 49.33 +00 11 55.9 19.8   704 – Lincoln Laboratory ETS, New Mexico MPS 51983
